Location: Doln� Jel?any
(49.9270°N, 15.0491°E)
Time: 01:04:27
(UTC+00:00)

Daily predictions for brighter satellites

Satellite Brightness Start Highest point End
(mag) Time Altitude Azimuth Time Altitude Azimuth Time Altitude Azimuth
STARLINK-1212 2.8 00:00:07 10° WNW 00:03:15 83° NNE 00:06:21 10° ESE
STARLINK-1105 2.8 00:00:36 10° WNW 00:03:42 84° NNE 00:06:48 10° ESE
STARLINK-1209 2.7 00:00:50 10° WNW 00:04:00 77° SSW 00:06:55 12° ESE
STARLINK-1247 2.8 00:01:30 10° WNW 00:04:38 85° NNE 00:07:46 10° ESE
STARLINK-1208 4.0 00:00:57 10° WNW 00:05:04 64° NNE 00:09:12 10° E
STARLINK-1227 2.8 00:01:58 10° WNW 00:05:05 85° NNE 00:08:11 10° ESE
ATLAS CENTAUR R/B 2.0 00:02:59 10° NW 00:05:13 52° NNE 00:09:32 10° ESE
STARLINK-1226 2.8 00:02:49 10° WNW 00:05:57 86° NNE 00:09:04 10° ESE
STARLINK-1215 2.8 00:03:45 10° WNW 00:06:53 87° NNE 00:10:01 10° ESE
STARLINK-1225 4.3 00:03:02 10° W 00:07:07 55° N 00:11:13 10° ENE
Nadezhda 2 Rocket 4.4 00:04:33 28° SSW 00:07:59 77° W 00:14:09 10° N
STARLINK-1217 2.7 00:05:32 10° WNW 00:08:39 89° NNE 00:11:47 10° ESE
STARLINK-1229 2.7 00:06:27 10° WNW 00:09:35 90° ENE 00:12:43 10° ESE
STARLINK-1271 4.0 00:05:57 10° WNW 00:10:05 66° NNE 00:14:13 10° E
GEOS 3 Rocket 3.9 00:07:39 27° S 00:10:10 48° SW 00:15:17 10° NW
Cosmos 1726 4.2 00:08:09 10° NW 00:10:19 15° W 00:10:54 15° W
STARLINK-1270 2.7 00:07:18 10° WNW 00:10:27 89° SSW 00:13:35 10° ESE
Cosmos 2058 Rocket 3.1 00:07:27 10° NNW 00:11:51 68° W 00:13:46 33° S
STARLINK-1230 4.3 00:08:01 10° W 00:12:06 55° N 00:16:12 10° ENE
STARLINK-1189 2.7 00:09:09 10° WNW 00:12:17 87° SSW 00:15:25 10° ESE
Meteor 1-29 3.3 00:09:15 10° N 00:12:36 54° WNW 00:13:32 38° SW
STARLINK-1188 2.7 00:10:01 10° WNW 00:13:10 87° SSW 00:16:17 10° ESE
STARLINK-1235 2.7 00:10:44 10° WNW 00:13:50 73° SSW 00:16:55 10° ESE
STARLINK-1187 2.7 00:11:09 10° WNW 00:14:15 79° SSW 00:17:21 10° ESE
Cosmos 2228 3.9 00:10:23 10° NNW 00:14:15 34° W 00:15:32 28° SW
STARLINK-1154 3.9 00:10:56 10° WNW 00:15:05 68° NNE 00:19:13 10° E
COSMOS 2455 2.8 00:11:40 26° SSW 00:15:12 87° SE 00:21:17 10° NE
STARLINK-1191 2.7 00:12:31 10° WNW 00:15:37 84° SSW 00:18:44 10° ESE
SJ 16-02 3.1 00:11:51 10° N 00:15:52 32° ENE 00:19:51 10° ESE
STARLINK-1221 2.7 00:13:23 10° WNW 00:16:30 83° SSW 00:19:36 10° ESE
STARLINK-1243 4.3 00:13:01 10° W 00:17:06 55° N 00:21:11 10° ENE
STARLINK-1222 2.7 00:14:17 10° WNW 00:17:23 82° SSW 00:20:30 10° ESE
Starlink 7 placeholder 4.2 00:19:27 18° E 00:19:27 18° E 00:20:08 10° ENE
STARLINK-1214 2.7 00:15:12 10° WNW 00:18:18 81° SSW 00:21:23 10° ESE
STARLINK-1197 3.9 00:15:55 10° WNW 00:20:03 70° NNE 00:24:13 10° E
SL-14 R/B 3.1 00:18:39 36° SSW 00:20:08 82° W 00:24:01 10° N
IRAS Rocket 4.4 00:17:53 26° S 00:20:56 56° WSW 00:26:26 10° NNW
STARLINK-1236 4.4 00:18:01 10° W 00:22:06 54° N 00:26:11 10° ENE
Cosmos 1300 2.7 00:19:50 10° NNW 00:23:38 65° W 00:25:04 35° SSW
Okean 1-7 Rocket 3.7 00:22:03 31° SSW 00:24:07 67° WNW 00:28:37 10° N
Cosmos 1174 3.4 00:23:33 39° SW 00:24:38 78° NW 00:28:23 10° NE
STARLINK-1198 3.8 00:20:52 10° WNW 00:25:01 73° NNE 00:29:10 10° ESE
Cosmos 921 Rocket 3.1 00:23:34 30° S 00:25:33 64° ESE 00:29:50 10° NNE
BREEZE M DEB (TANK) 1.8 00:26:49 58° SSW 00:26:54 59° SSW 00:30:15 10° ESE
COSMOS 2487 4.1 00:24:46 10° NW 00:27:18 20° W 00:27:18 20° W
STARLINK-1199 3.8 00:25:53 10° WNW 00:30:03 75° NNE 00:34:12 10° ESE
Meteor 2-16 Rocket 4.4 00:27:43 24° S 00:31:40 87° W 00:37:51 10° N
SAR-Lupe-3 4.5 00:28:22 10° NNE 00:31:57 83° WNW 00:33:22 35° SSW
Cosmos 1626 Rocket 3.7 00:29:36 25° S 00:31:58 67° E 00:36:17 10° NNE
STARLINK-1269 4.4 00:28:00 10° WNW 00:32:05 55° N 00:36:10 10° E
Cosmos 2219 3.4 00:27:05 10° NNW 00:32:47 75° ENE 00:38:25 10° SE
STARLINK-1210 3.7 00:30:51 10° WNW 00:35:01 78° NNE 00:39:10 10° ESE
Cosmos 1626 2.5 00:34:31 31° SW 00:35:57 51° WNW 00:39:36 10° N
STARLINK-1200 4.4 00:33:01 10° WNW 00:37:06 55° N 00:41:11 10° E
STARLINK-60 2.9 00:36:27 40° SW 00:37:24 66° SSE 00:40:36 10° ENE
STARLINK-1219 3.7 00:35:50 10° WNW 00:40:00 81° NNE 00:44:10 10° ESE
Nadezhda 1 Rocket 4.0 00:34:57 10° NNW 00:41:07 76° W 00:45:52 18° S
STARLINK-1192 4.3 00:38:00 10° WNW 00:42:06 55° N 00:46:11 10° E
FALCON 9 R/B 4.0 00:38:25 21° SW 00:42:59 35° SSE 01:02:05 10° ESE
STARLINK-1211 3.6 00:40:48 10° WNW 00:44:58 85° NNE 00:49:08 10° ESE
MOZ.5/SAFIR/RUBIN 5/SL-8 3.9 00:44:16 23° S 00:46:58 57° W 00:51:34 10° NNW
STARLINK-1244 4.3 00:42:59 10° WNW 00:47:05 56° N 00:51:10 10° E
UNK 3.7 00:44:01 20° S 00:47:13 74° WSW 00:51:51 10° NNW
Cosmos 2297 Rocket 2.3 00:42:45 10° NNW 00:48:27 79° ENE 00:54:06 10° SSE
Cosmos 220 Rocket 4.0 00:46:16 25° SSW 00:48:46 79° ESE 00:53:13 10° NNE
AQUA 4.3 00:45:04 10° NNE 00:49:45 55° E 00:53:18 17° S
STARLINK-1245 3.6 00:45:48 10° WNW 00:49:58 88° NNE 00:54:08 10° ESE
Cosmos 1812 Rocket 3.5 00:46:35 10° N 00:51:06 88° WSW 00:54:30 17° S
CZ-4B R/B 3.9 00:46:12 10° NNE 00:51:17 61° ESE 00:55:16 17° S
STARLINK-1138 4.3 00:47:59 10° WNW 00:52:05 56° N 00:56:10 10° E
SL-4 R/B 2.3 00:49:13 20° WSW 00:52:33 71° SSE 00:57:14 10° ENE
Cosmos 1437 3.0 00:52:48 31° SW 00:53:49 46° WNW 00:56:45 10° N
STARLINK-1203 4.3 00:50:35 10° WNW 00:54:44 57° N 00:58:54 10° E
STARLINK-1233 3.5 00:50:46 10° WNW 00:54:56 88° SSW 00:59:06 10° ESE
Cosmos 990 Rocket 4.3 00:50:58 10° NNW 00:56:14 68° ENE 01:01:28 10° SSE
STARLINK-1143 4.3 00:52:58 10° WNW 00:57:05 57° N 01:01:11 10° E
STARLINK-1204 3.5 00:55:46 10° WNW 00:59:56 84° SSW 01:04:05 10° ESE
ATLAS CENTAUR R/B 2.0 00:56:56 18° WSW 00:59:59 52° NW 01:03:59 10° NNE
Timation 2 Rocket 4.4 00:54:13 10° NW 01:00:07 41° WSW 01:04:30 16° S
SL-16 R/B 2.6 00:56:01 16° S 01:01:03 60° WSW 01:07:10 10° NNW
STARLINK-1241 4.3 00:57:58 10° WNW 01:02:04 58° N 01:06:10 10° E
Alouette 2 Rocket 4.3 00:55:10 10° NNW 01:02:16 80° ENE 01:06:49 10° SSE
NOSS 3-4 (A) 4.1 00:57:31 11° WSW 01:03:13 50° NW 01:09:35 10° NE
NOSS 3-4 (C) 4.1 00:57:37 11° WSW 01:03:19 51° NW 01:09:42 10° NE
BREEZE-M R/B 3.2 01:01:07 22° SW 01:03:21 40° SSE 01:06:07 10° E
FALCON 9 DEB 3.8 01:02:08 26° SSW 01:03:32 40° SSE 01:06:48 10° ENE
Cosmos 1602 Rocket 3.5 01:01:58 22° SSW 01:04:45 75° W 01:09:05 10° N
STARLINK-1238 3.5 01:00:43 10° WNW 01:04:53 80° SSW 01:09:02 10° ESE
Cosmos 1825 Rocket 4.4 01:01:14 12° SSE 01:04:59 46° E 01:09:09 10° NNE
STARLINK-29 3.0 01:04:34 27° SW 01:06:04 59° SSE 01:09:13 10° ENE
Cosmos 1455 2.2 01:02:19 10° N 01:06:05 80° E 01:09:23 13° SSE
STARLINK-1239 4.2 01:02:57 10° WNW 01:07:03 59° N 01:11:10 10° E
ATLAS 3B R/B 3.4 01:01:38 10° NW 01:07:32 33° WSW 01:12:42 14° S
BREEZE-M DEB (TANK) 3.4 01:09:30 18° SSE 01:09:40 18° SSE 01:11:27 10° E
STARLINK-1201 3.5 01:05:43 10° WNW 01:09:52 76° SSW 01:14:01 10° ESE
IRS-1D 4.0 01:05:11 10° NNE 01:10:31 62° ESE 01:15:16 13° S
CENTAUR R/B 4.4 01:05:16 10° WNW 01:10:56 21° WSW 01:14:47 15° SW
STARLINK-1240 4.2 01:07:57 10° WNW 01:12:04 60° N 01:16:11 10° E
GP-B 3.2 01:07:41 10° N 01:12:10 77° E 01:16:11 13° S
Meteor 2-1 Rocket 4.3 01:07:57 10° NNW 01:13:21 58° W 01:18:03 14° S
BREEZE-M DEB (TANK) 0.9 01:12:38 19° WSW 01:14:14 74° S 01:16:38 10° E
STARLINK-1206 3.5 01:10:42 10° WNW 01:14:50 72° SSW 01:18:59 10° ESE
Cosmos-2242 3.1 01:11:25 10° N 01:15:42 74° E 01:19:56 10° SSE
STARLINK-1216 4.2 01:12:56 10° WNW 01:17:04 62° NNE 01:21:10 10° E
Cosmos 1745 Rocket 4.3 01:12:45 17° SSW 01:17:21 53° WNW 01:23:22 10° N
Cosmos 1400 Rocket 4.4 01:14:04 10° N 01:17:55 37° ENE 01:21:47 10° SE
STARLINK-1373 4.5 01:17:22 18° S 01:19:08 28° SE 01:22:12 10° E
STARLINK-1205 3.5 01:15:41 10° WNW 01:19:49 68° SSW 01:23:56 10° SE
STARLINK-1390 4.4 01:19:27 18° S 01:21:17 28° SE 01:24:23 10° E
STARLINK-1237 4.1 01:17:55 10° WNW 01:22:04 63° NNE 01:26:11 10° E
Cosmos 2181 Rocket 4.1 01:15:49 10° N 01:22:16 89° E 01:28:44 10° S
RESURS DK-1 3.1 01:19:17 16° WSW 01:22:18 43° NW 01:26:17 10° NNE
SL-08 R/B 3.7 01:17:48 10° SSE 01:22:27 66° ENE 01:27:04 10° N
Cosmos 2227 Rocket 2.2 01:18:22 10° NNW 01:24:01 69° WSW 01:29:39 10° SSE
STARLINK-1218 3.5 01:20:40 10° WNW 01:24:46 64° SSW 01:28:52 10° SE
CZ-2D R/B 2.4 01:20:51 10° N 01:26:02 57° WNW 01:30:15 15° SW
STARLINK-1202 4.1 01:22:55 10° WNW 01:27:04 65° NNE 01:31:11 10° E
Cosmos 1763 Rocket 3.8 01:23:45 13° S 01:28:19 61° ESE 01:33:21 10° NNE
Cosmos 1697 Rocket 3.6 01:23:16 10° S 01:28:36 44° ESE 01:33:58 10° NE
ADEOS II 2.4 01:23:33 10° NNE 01:28:48 68° ESE 01:34:02 10° S
STARLINK-1254 3.6 01:25:39 10° WNW 01:29:45 60° SSW 01:33:50 10° SE
Cosmos 1703 3.4 01:26:47 13° S 01:30:19 77° E 01:34:17 10° NNE
ATLAS 2AS CENTAUR R/B 3.9 01:24:54 10° WSW 01:32:33 45° NNW 01:40:01 10° NE
STARLINK-1231 3.6 01:30:40 10° WNW 01:34:44 57° SSW 01:38:48 10° SE
Resurs 1-4 Rocket 2.6 01:30:41 10° N 01:35:44 47° WNW 01:40:11 13° SW
STARLINK-1228 4.5 01:33:44 10° W 01:36:07 18° SW 01:38:30 10° S
STARLINK-1246 4.0 01:32:52 10° WNW 01:37:01 69° NNE 01:41:10 10° E
STARLINK-1234 4.5 01:35:11 10° W 01:41:18 - SSE 01:37:02 17° SW
STARLINK-1212 4.1 01:36:20 10° W 01:38:47 21° SW 01:41:12 10° SSE
STARLINK-1105 4.1 01:36:48 10° W 01:39:13 21° SW 01:41:38 10° SSE
STARLINK-1232 3.7 01:35:39 10° WNW 01:39:42 53° SSW 01:43:44 10° SE
STARLINK-1247 4.1 01:37:43 10° W 01:40:09 21° SW 01:42:35 10° SSE
STARLINK-1227 4.1 01:38:12 10° W 01:40:35 20° SW 01:42:59 10° S
USA 81 4.5 01:36:19 14° SSW 01:40:43 48° WNW 01:45:51 10° N
ARIANE 5 R/B 3.1 01:35:55 10° NNE 01:40:56 55° E 01:45:51 10° S
STARLINK-1226 4.2 01:39:03 10° W 01:41:27 20° SW 01:43:51 10° S
STARLINK-1224 3.9 01:37:51 10° WNW 01:42:01 72° NNE 01:46:09 10° ESE
STARLINK-1215 4.2 01:40:01 10° W 01:42:24 20° SW 01:44:47 10° S
STARLINK-52 2.9 01:39:41 13° WSW 01:42:29 90° NNW 01:45:42 10° ENE
Cosmos 1758 Rocket 3.7 01:39:23 13° SSW 01:43:08 63° WNW 01:47:30 10° N
NPP 4.2 01:37:59 10° N 01:43:10 48° WNW 01:47:57 12° SW
STARLINK-1217 4.2 01:41:48 10° W 01:44:08 19° SW 01:46:28 10° S
STARLINK-1208 3.8 01:40:37 10° WNW 01:44:38 50° SSW 01:48:39 10° SE
STARLINK-1229 4.3 01:42:45 10° W 01:45:04 19° SW 01:47:23 10° S
H-2A R/B 2.8 01:40:55 10° SSE 01:45:10 58° ENE 01:49:32 10° N
STARLINK-1270 4.3 01:43:37 10° W 01:45:56 19° SW 01:48:14 10° S
STARLINK-1225 3.9 01:42:51 10° WNW 01:47:01 74° NNE 01:51:10 10° ESE
STARLINK-1189 4.3 01:45:30 10° W 01:47:45 18° SW 01:50:00 10° S
STARLINK-1188 4.3 01:46:23 10° W 01:48:38 18° SW 01:50:52 10° S
Cosmos 1898 Rocket 3.8 01:43:52 10° NNW 01:49:02 50° WSW 01:54:08 10° S
STARLINK-1271 3.8 01:45:38 10° WNW 01:49:37 46° SSW 01:53:36 10° SE
STARLINK-1187 4.5 01:47:40 10° W 01:49:40 16° SW 01:51:40 10° S
STARLINK-1191 4.4 01:48:56 10° W 01:51:04 17° SW 01:53:12 10° S
Lacrosse 4 Rocket 1.6 01:46:49 10° NNW 01:51:13 79° NE 01:55:27 10° SE
STARLINK-1221 4.4 01:49:49 10° W 01:51:56 17° SW 01:54:03 10° S
STARLINK-1230 3.8 01:47:49 10° WNW 01:51:59 77° NNE 01:56:08 10° ESE
Starlink 7 placeholder 3.3 01:50:11 10° WNW 01:52:01 33° N 01:53:54 10° ENE
STARLINK-1222 4.4 01:50:44 10° W 01:52:49 17° SW 01:54:54 10° S
Cosmos 1656 3.8 01:48:20 12° SW 01:53:41 76° WNW 01:59:21 10° NNE
STARLINK-1214 4.4 01:51:40 10° W 01:53:43 16° SW 01:55:46 10° S
IDEFIX/ARIANE 42P 3.8 01:49:16 10° NNE 01:54:15 40° E 01:59:11 10° SSE
SJ 16-02 2.1 01:50:28 10° NW 01:54:27 33° WSW 01:58:25 10° SSW
Cosmos 2285 Rocket 4.0 01:48:12 10° NNW 01:54:34 70° WSW 02:00:52 10° S
STARLINK-1154 3.9 01:50:38 10° WNW 01:54:35 43° SW 01:58:31 10° SE
CZ-4C R/B 2.6 01:50:46 10° SSW 01:55:39 54° ESE 02:01:30 10° NE
Cosmos 2084 4.0 01:52:18 10° WSW 01:56:39 55° NW 02:01:04 10° NE
STARLINK-1243 3.8 01:52:48 10° WNW 01:56:59 80° NNE 02:01:08 10° ESE
Cosmos 468 Rocket 4.1 01:52:22 11° SSW 01:57:17 70° WNW 02:02:25 10° NNE
Cosmos 1570 Rocket 4.3 01:53:33 10° SSW 01:58:50 71° ESE 02:04:08 10° NNE
Cosmos 1937 Rocket 3.6 01:54:13 10° NNW 01:59:20 55° WSW 02:04:27 10° S
Cosmos 1953 Rocket 3.6 01:54:58 10° SSW 01:59:27 75° WNW 02:03:55 10° N
STARLINK-1197 4.0 01:55:38 10° WNW 01:59:32 41° SW 02:03:25 10° SE
Meteor 2-10 Rocket 4.4 01:56:17 10° NNW 02:00:59 32° W 02:05:31 10° SSW
Uosat 12 SS-18 rocket 4.1 01:57:15 10° NW 02:01:35 83° NE 02:06:03 10° SE
Cosmos 2208 Rocket 4.4 01:56:35 10° S 02:01:44 63° ESE 02:07:00 10° NNE
COSMOS 2455 4.4 01:56:45 10° W 02:01:54 28° NNW 02:07:04 10° NNE
Cosmos 2369 3.9 01:56:20 10° SSW 02:01:56 73° ESE 02:07:35 10° NNE
STARLINK-1236 3.7 01:57:47 10° WNW 02:01:58 83° NNE 02:06:07 10° ESE
NOSS 7 (H) 4.3 01:59:33 11° SSW 02:02:35 66° SE 02:05:31 10° NE
STARLINK-1198 4.1 02:00:36 10° WNW 02:04:28 38° SW 02:08:18 10° SSE
Cosmos 1842 Rocket 4.0 02:00:48 10° N 02:05:19 69° E 02:09:46 10° SSE
STARLINK-1199 4.2 02:05:39 10° WNW 02:09:27 35° SW 02:13:14 10° SSE
Iridium 2 3.7 02:06:42 10° N 02:10:29 89° E 02:14:14 10° S
STARLINK-1269 3.6 02:07:44 10° WNW 02:11:55 89° S 02:16:04 10° ESE
USA 129 3.8 02:10:53 10° NE 02:12:38 21° E 02:14:00 10° SSE
STARLINK-60 3.8 02:10:31 10° W 02:13:38 49° N 02:16:47 10° ENE
STARLINK-1210 4.3 02:10:39 10° WNW 02:14:23 33° SW 02:18:06 10° SSE
Cosmos 2219 4.5 02:12:14 10° NW 02:16:19 21° W 02:20:23 10° SSW
STARLINK-1200 3.6 02:12:44 10° WNW 02:16:55 86° SSW 02:21:03 10° ESE
Cosmos 1814 Rocket 4.3 02:12:21 10° SSW 02:17:41 75° ESE 02:23:03 10° NNE
STARLINK-1320 2.9 02:15:10 10° WSW 02:18:16 72° SSE 02:21:23 10° ENE
STARLINK-1322 2.9 02:15:30 10° WSW 02:18:37 72° SSE 02:21:44 10° ENE
Cosmos 1125 Rocket 4.4 02:13:36 10° NNW 02:18:44 54° ENE 02:23:49 10° SE
STARLINK-1324 2.9 02:15:51 10° WSW 02:18:58 72° SSE 02:22:05 10° ENE
STARLINK-1294 2.9 02:16:08 10° WSW 02:19:15 73° SSE 02:22:24 10° ENE
STARLINK-1219 4.4 02:15:39 10° W 02:19:20 31° SW 02:22:59 10° SSE
STARLINK-1261 2.9 02:16:31 10° WSW 02:19:37 73° SSE 02:22:44 10° ENE
Nadezhda 3 Rocket 4.2 02:13:26 10° N 02:19:44 85° E 02:26:03 10° S
STARLINK-1325 2.9 02:16:53 10° WSW 02:19:59 73° SSE 02:23:06 10° ENE
Cosmos 1980 Rocket 2.7 02:15:20 10° SSW 02:20:50 60° ESE 02:26:24 10° NE
